Regional Weather Roundup
Issued by NWS

Home | Current Version | Previous Version | Text Only | Print | Product List | Glossary On
Versions: 1 2 3 4 5 6 7 8 9 10 11 12 13 14 15 16 17 18 19 20 21 22 23 24 25 26 27 28 29 30 31 32 33 34 35 36 37 38 39 40 41 42 43 44 45 46 47 48 49 50
000
ASUS42 KFFC 012203
RWRGA
WEATHER ROUNDUP FOR GEORGIA
NATIONAL WEATHER SERVICE PEACHTREE CITY GA
600 PM EDT MON SEP 01 2014

NOTE: "FAIR" INDICATES FEW OR NO CLOUDS BELOW 12,000 FEET WITH NO
SIGNIFICANT WEATHER AND/OR OBSTRUCTIONS TO VISIBILITY.

* = USE WITH CAUTION. THE STATIONS MARKED WITH AN ASTERISK MAY NOT
REPORT WEATHER SUCH AS PRECIPITATION, FOG, OR THUNDER AND ARE NOT
QUALITY CONTROLLED BY NWS.

THE REMARK "TC" DENOTES TEMPERATURE READING IN DEGREES CELSIUS.

GAZ001>058-012300-
NORTH GEORGIA

CITY           SKY/WX    TMP DP  RH WIND       PRES   REMARKS
ATLANTA        CLOUDY    81  74  79 CALM      30.08F
ATHENS         CLOUDY    82  70  66 NW5       30.06F
CHAMBLEE       PTSUNNY   75  66  73 E5        30.07F THUNDER
PEACHTREE CITY CLOUDY    76  72  87 W7        30.09S
ROME           SUNNY     92  69  47 S3        30.02F HX  97
WEST ATLANTA   PTSUNNY   85  72  65 SW8       30.06F HX  91
GAINESVILLE    MOSUNNY   84  66  54 S7        30.10F
CARTERSVILLE   MOSUNNY   86  69  56 NE3       30.05F HX  90


CITY           SKY/WX    TMP DP  RH WIND       PRES   REMARKS
DALTON*        SUNNY     88  70  55 SE5       30.05S HX  92
LAWRENCEVILLE* PTSUNNY   82  63  51 SE6       30.09F
$$

GAZ059>098-102>109-012300-
CENTRAL GEORGIA

CITY           SKY/WX    TMP DP  RH WIND       PRES   REMARKS
AUGUSTA-BUSH   MOSUNNY   95  67  39 SE7       30.00F HX  99
AUGUSTA-DANIEL MOSUNNY   96  64  34 SE6       30.03F HX  98
COLUMBUS       MOSUNNY   92  68  45 N9        30.02R HX  96
MACON          MOSUNNY   95  69  42 CALM      30.01S HX 100
ROBINS AFB     MOSUNNY   96  70  42 S6        30.00F HX 102


CITY           SKY/WX    TMP DP  RH WIND       PRES   REMARKS
LAGRANGE*      TSTM      79  74  86 N9        30.08R
SYLVANIA*      MOSUNNY   91  74  58 SE3       30.04S HX 100
MILLEDGEVILLE* MOSUNNY   97  68  38 E3        30.02  HX 101
$$

GAZ099>101-110>166-012300-
SOUTH GEORGIA

CITY           SKY/WX    TMP DP  RH WIND       PRES   REMARKS
SAVANNAH       PTSUNNY   90  74  59 S8        30.04S THUNDER HX  99
VALDOSTA       MOSUNNY   94  70  45 SE6       30.02F HX 100
ALMA           MOSUNNY   92  70  48 CALM      30.02S HX  97
ST SIMONS      SUNNY     87  74  64 SE14      30.04S HX  95
FT STEWART     MOSUNNY   91  76  60 E12       30.02F HX 102
ALBANY         SUNNY     95  66  38 W8        30.02F HX  98
HUNTER AFB     MOSUNNY   88  76  66 SE8       30.03S HX  99
MOODY AFB      SUNNY     94  71  47 VRB7      30.03F HX 101
BRUNSWICK      SUNNY     90  72  55 SE10      30.04F HX  96


CITY           SKY/WX    TMP DP  RH WIND       PRES   REMARKS
BAINBRIDGE*    MOSUNNY   88  72  58 S20       30.03S THUNDER HX  94
MOULTRIE*      SUNNY     93  70  46 S5        30.03F HX  99
VIDALIA*         N/A     93  72  49 SE3       30.03S HX 100
WAYCROSS*      MOSUNNY   95  78  58 W9        30.02S HX 110
DOUGLAS*       PTSUNNY   88  70  55 CALM      30.05S HX  92
$$



USA.gov is the U.S. government's official web portal to all federal, state and local government web resources and services.